Wind_Speed
5 5 5 5 5 4 4 3 4 5 6 8 9 11 12 14 16 19 20 13 7 8 7 6 7 1 5 5 6 8 8 7 9 11 11 11 12 13 12 13 14 14 14 13 13 13 13 12 12 12 13 15 16 16 17 18 17 15 11 8 8 8 6 6 5 5 6 4 4 5 5 4 4 5 5 4 5 5 5 4 3 3 4 5 6 6 6 9
7 6 6 6 6 6 6 6 5 6 7 7 9 11 12 14 15 19 19 12 7 8 6 6 6 1 6 6 6 8 8 8 10 11 11 11 13 14 14 15 15 15 14 13 13 13 12 12 12 13 14 16 16 16 16 17 19 17 11 10 11 8 7 7 5 5 5 5 5 5 5 4 3 3 5 5 4 3 4 3 2 2 3 4 5 5 5 8
10 9 8 8 8 8 7 7 7 7 7 7 9 11 13 14 15 18 19 12 7 7 5 5 6 2 7 6 7 9 10 9 10 12 12 13 15 16 16 15 15 14 13 12 12 13 12 11 12 12 14 16 16 14 15 16 18 18 14 12 13 11 10 9 6 5 4 4 4 4 4 3 2 2 4 5 4 4 4 3 2 1 3 4 5 5 5 7
12 12 11 10 10 9 9 9 8 8 8 8 9 10 12 14 15 17 18 12 7 7 4 5 5 3 7 7 8 11 11 9 10 14 15 15 16 17 16 15 13 13 12 12 12 12 12 11 12 12 14 15 13 13 14 13 14 16 15 12 13 14 12 10 8 6 4 3 3 3 3 2 2 2 4 4 4 4 4 5 5 4 4 5 5 4 6 8
15 14 13 13 12 11 11 10 10 9 9 9 9 10 12 13 14 16 18 12 7 7 4 5 5 3 8 9 9 12 12 8 12 17 17 17 17 16 15 14 13 12 11 11 11 11 11 12 12 12 14 14 13 12 12 12 13 14 14 14 14 14 12 12 10 7 5 4 3 3 2 2 2 2 4 5 5 5 5 6 7 7 6 5 4 4 5 8
17 16 15 15 14 13 12 11 11 10 10 9 9 10 12 13 14 15 17 11 7 6 3 4 4 2 8 9 11 16 12 8 15 19 17 17 17 16 14 13 12 11 11 10 10 10 11 11 12 12 13 13 11 11 10 11 14 12 12 15 15 13 12 12 12 10 8 5 3 2 1 1 1 1 3 5 5 5 5 6 7 7 5 3 3 3 4 6
19 18 17 16 15 14 13 13 12 11 11 10 10 11 11 13 14 15 16 11 7 6 3 3 3 2 8 10 14 18 11 11 19 19 18 18 16 15 13 12 11 10 10 9 9 9 10 11 11 11 11 10 9 11 10 10 13 13 12 15 15 13 12 11 11 11 10 8 5 4 2 1 1 1 3 5 5 5 6 6 6 6 4 3 2 3 3 5
20 20 19 18 17 16 15 14 13 12 11 10 10 11 12 13 14 15 15 10 6 6 4 2 2 2 9 11 16 17 11 16 22 19 19 18 15 14 12 11 11 9 8 8 8 8 9 10 9 9 8 7 8 9 9 10 13 14 13 14 15 13 11 10 10 10 10 9 8 7 5 4 2 2 3 6 5 4 5 6 6 5 3 3 3 3 3 4
20 20 20 19 18 17 16 15 13 12 11 11 11 11 12 13 14 14 14 10 6 5 4 2 1 3 8 13 17 15 12 19 22 19 19 16 15 13 12 10 10 9 7 6 6 6 7 7 7 7 6 6 8 9 10 11 9 12 13 13 14 13 10 10 10 9 9 9 10 10 9 7 4 3 2 5 5 3 3 4 4 4 3 3 3 3 3 4
19 20 20 20 19 18 17 16 14 13 12 12 12 12 12 13 14 14 13 9 6 6 4 3 2 4 8 15 17 11 14 22 21 20 19 16 15 13 11 10 9 8 6 5 4 4 4 5 4 6 6 6 8 9 9 9 8 12 13 12 12 11 10 10 10 9 9 9 9 10 10 8 6 6 3 2 3 2 2 2 2 2 3 4 4 4 3 4
18 19 20 20 20 19 18 17 15 14 13 13 13 13 13 13 13 13 13 8 6 6 4 4 2 5 9 16 17 10 16 23 22 21 19 16 15 13 11 10 9 8 5 4 3 2 2 3 3 5 5 5 7 8 8 10 11 13 12 10 11 11 11 11 11 10 9 8 8 9 10 9 10 9 7 3 2 1 1 2 3 3 3 4 4 4 4 4
17 18 19 20 20 19 19 18 16 15 14 14 14 13 13 13 13 13 12 8 6 6 5 4 3 6 9 16 18 14 18 23 23 22 19 17 15 12 11 9 8 7 5 3 2 2 1 1 1 4 3 4 7 6 6 10 11 11 11 11 11 12 13 12 11 11 9 8 8 8 9 10 10 10 9 6 4 3 2 3 3 3 3 3 4 4 5 4
16 17 19 20 20 20 19 18 17 16 15 15 14 13 12 12 12 12 11 8 7 6 5 5 4 6 9 16 19 17 17 22 24 23 21 18 15 13 11 9 9 7 6 4 4 5 3 2 1 2 3 4 6 5 5 10 11 9 10 12 8 8 11 11 10 10 9 8 7 7 7 8 8 8 8 8 6 4 3 2 2 3 3 3 3 4 6 6
14 16 17 19 20 20 20 19 18 17 16 15 14 13 12 12 11 12 10 8 7 6 6 5 5 7 11 16 19 18 18 20 23 23 22 20 17 15 13 12 10 9 8 6 7 7 5 4 2 1 3 4 5 6 7 8 8 8 7 9 7 4 6 9 8 8 8 7 7 7 6 6 7 7 7 8 7 5 4 3 2 3 3 3 3 4 6 7
12 14 15 17 19 19 20 19 18 17 16 15 14 12 11 11 10 11 9 7 7 6 6 5 6 8 10 14 18 19 18 19 21 23 24 22 18 16 15 14 13 12 10 10 9 7 6 5 2 2 3 4 6 8 6 4 5 7 6 5 6 6 5 7 8 7 6 6 7 6 5 5 5 6 6 7 7 7 6 4 2 3 4 4 4 4 6 7
12 12 14 15 17 18 19 18 18 17 15 15 13 11 11 10 10 10 8 7 7 6 6 5 6 8 9 12 17 19 18 18 20 22 24 24 21 18 17 17 15 14 13 11 9 7 6 4 2 2 3 3 5 6 4 3 1 4 6 5 6 6 5 5 8 7 4 3 5 6 4 3 3 4 6 6 7 8 8 5 2 2 3 4 4 5 6 7
12 12 12 13 15 16 17 17 17 16 15 14 12 11 10 9 9 9 7 7 6 6 6 6 6 8 10 10 14 19 20 20 20 21 23 24 24 21 18 18 17 15 13 11 9 6 4 2 1 2 3 3 4 4 4 1 2 2 5 4 4 5 5 5 7 7 3 2 4 5 4 1 1 3 5 5 7 7 7 5 3 2 2 3 4 5 5 6
12 12 11 12 13 14 15 16 15 15 15 14 12 10 9 9 9 8 7 7 6 6 5 6 8 8 8 10 14 20 21 20 20 21 21 22 24 23 21 18 18 15 11 9 7 4 3 2 0 2 4 4 2 3 3 3 3 4 5 4 4 4 5 6 7 7 2 1 4 6 4 1 1 1 3 4 5 5 5 4 2 1 2 3 5 5 6 6
12 12 11 12 13 13 14 14 14 14 14 13 11 9 8 8 8 7 7 7 7 8 6 7 10 10 9 11 14 18 20 20 20 20 20 21 23 24 23 20 18 14 9 7 6 4 4 2 2 3 3 3 1 3 3 4 5 5 6 5 5 4 4 6 8 9 3 1 4 5 3 0 2 2 1 2 3 4 4 3 2 1 2 4 5 6 7 8
12 12 12 12 13 13 13 13 13 14 14 12 11 9 8 8 7 7 8 8 8 11 9 9 12 12 11 11 13 16 18 19 19 19 19 19 21 22 23 20 16 13 10 7 6 6 5 4 6 5 4 3 3 4 4 5 5 5 5 4 4 3 3 6 8 9 6 0 2 4 5 3 4 3 1 2 2 2 2 3 3 2 2 3 4 5 6 7
11 12 12 12 13 13 13 12 13 13 13 12 10 9 8 7 7 7 8 8 10 12 11 10 11 11 11 11 13 15 17 18 19 19 17 18 19 19 20 18 14 12 12 10 8 6 4 5 6 4 5 6 6 6 6 6 5 4 4 3 3 3 2 6 7 9 7 2 1 2 4 3 4 3 1 3 3 1 2 2 3 3 3 3 3 4 5 5
10 11 12 13 13 13 13 13 13 13 13 11 10 9 8 8 9 9 8 8 11 13 13 12 11 10 10 10 12 14 14 15 17 18 17 17 19 16 15 16 14 11 10 10 8 6 6 7 5 4 7 8 6 7 7 6 5 4 4 4 4 2 2 4 5 8 6 1 3 1 2 3 4 4 3 3 4 4 3 3 3 4 3 3 4 4 4 4
9 10 11 13 14 14 13 13 13 13 12 11 10 9 8 9 10 9 9 8 11 14 14 13 12 10 9 10 12 13 12 12 15 17 17 17 18 16 14 14 13 11 10 9 9 8 6 4 5 6 7 6 4 4 4 4 4 4 5 6 5 3 3 4 4 7 5 3 4 1 2 4 4 3 4 4 5 6 5 4 4 4 3 3 4 4 4 3
9 10 11 12 14 14 14 13 13 12 12 11 9 9 9 9 10 9 9 9 11 14 15 14 13 12 10 11 11 11 11 11 13 15 16 17 18 17 14 14 13 10 10 9 9 10 6 3 4 6 5 4 4 4 4 4 4 3 4 6 5 4 4 5 6 7 6 6 4 2 4 6 3 1 2 3 5 7 7 6 6 6 5 4 4 4 3 2
8 9 10 11 13 14 14 14 13 12 12 11 9 9 9 10 10 9 9 8 9 14 15 14 13 13 11 10 10 11 12 12 12 13 16 18 18 16 13 14 12 9 10 9 8 9 7 5 6 5 5 5 5 4 3 3 4 2 1 3 5 5 5 5 6 7 7 6 3 3 6 7 6 3 3 3 5 7 8 8 8 8 6 5 5 4 3 1
7 8 9 11 12 13 14 13 13 13 12 11 9 9 9 10 10 9 8 7 8 13 16 15 14 13 12 11 12 13 12 12 13 15 17 19 18 16 13 12 11 8 8 8 7 8 6 5 6 5 5 5 4 4 3 3 4 1 2 3 5 5 6 6 6 8 7 4 1 4 7 3 7 6 6 5 5 7 10 10 9 9 8 7 7 6 4 3
7 8 8 10 10 12 12 12 13 13 12 10 9 10 10 11 10 8 7 6 8 13 16 17 15 14 14 13 13 12 9 12 16 17 19 19 18 15 12 10 8 7 6 6 6 8 7 4 5 5 4 4 5 4 3 2 4 1 3 5 5 4 6 6 7 9 7 7 7 7 7 7 5 6 6 6 5 7 10 11 11 11 10 9 8 8 7 6
6 7 7 9 9 10 11 12 13 12 11 10 10 11 11 10 10 10 7 4 8 12 17 20 17 16 17 15 15 12 8 12 15 18 20 19 16 14 11 9 8 7 6 7 6 5 6 6 5 6 6 6 5 4 3 2 4 4 5 6 5 5 6 6 8 9 6 7 10 7 6 9 6 6 6 5 5 8 11 12 12 12 11 11 10 10 9 8
6 6 7 8 8 9 10 12 12 11 10 10 11 11 11 11 10 11 6 5 8 12 15 19 18 18 19 17 17 12 10 13 13 16 20 17 16 14 11 10 10 8 7 9 6 3 6 10 10 9 9 8 6 7 8 4 4 6 8 8 7 6 6 6 8 8 6 8 9 6 7 9 5 6 6 5 5 9 12 13 14 14 13 12 11 11 11 10
5 5 6 7 8 9 10 11 11 11 10 11 12 12 12 12 11 9 7 5 9 11 15 19 18 20 21 18 18 13 12 15 13 16 19 16 16 14 11 10 10 8 6 8 8 5 6 9 11 12 11 12 11 11 12 8 6 8 9 8 7 6 5 6 7 6 7 8 6 5 6 7 6 4 5 7 9 10 13 15 15 15 14 13 12 12 12 12
5 5 5 6 7 8 9 10 11 11 11 12 12 12 12 12 10 8 7 7 9 10 16 19 18 21 21 19 18 15 15 15 13 17 18 16 16 15 12 10 8 8 8 10 9 7 6 5 8 13 14 15 14 12 11 10 9 8 8 8 8 7 6 6 5 5 7 4 4 3 5 8 9 3 4 9 10 11 13 15 15 15 15 14 13 13 13 13
5 5 5 6 7 9 9 10 11 11 13 13 13 14 12 9 11 9 5 8 10 11 16 19 19 22 21 17 15 15 17 16 14 16 16 15 15 15 14 11 8 9 10 10 9 7 7 5 5 8 11 12 11 10 10 10 9 9 8 9 9 7 5 6 5 4 6 2 5 3 3 7 10 5 7 10 10 11 14 15 16 15 14 14 13 14 13 13
5 5 5 7 7 9 9 10 11 12 14 14 13 14 10 7 11 10 7 8 9 11 15 17 19 20 21 18 15 15 17 16 15 16 15 14 14 14 15 12 10 10 7 6 7 7 7 7 5 3 5 6 7 7 7 6 6 7 8 8 8 7 5 5 4 4 6 2 4 3 4 9 9 5 9 13 11 12 13 15 16 15 14 13 12 12 12 12
4 5 6 7 8 9 10 11 12 14 15 15 14 13 10 9 9 10 10 7 7 12 15 17 18 18 19 18 15 17 18 14 15 16 15 15 14 14 15 13 13 11 7 5 7 8 7 6 7 6 4 4 5 7 6 5 7 8 8 10 11 11 8 6 5 5 7 3 3 6 6 8 6 4 7 9 8 9 11 13 15 14 14 12 11 11 11 12
4 4 6 7 8 9 10 11 13 15 15 15 13 11 12 10 7 9 10 6 7 11 14 17 18 17 18 17 15 18 18 13 16 17 15 15 14 14 13 12 13 11 8 8 6 7 9 5 6 8 6 6 6 8 8 9 10 8 8 11 12 11 9 10 11 10 12 11 6 8 7 6 7 9 11 11 10 10 10 12 14 13 13 13 12 13 12 13
4 3 5 7 8 10 11 13 14 15 16 16 12 12 14 8 4 6 8 7 8 10 12 16 17 16 18 17 16 20 18 12 15 17 15 15 14 13 12 10 13 12 10 10 6 6 9 6 7 9 7 8 9 9 8 7 6 5 8 10 11 10 10 12 12 9 11 11 8 9 9 7 7 11 14 13 12 13 12 13 14 14 13 13 14 14 14 15
4 2 3 5 8 11 12 14 15 16 17 16 12 14 13 7 5 7 7 9 11 12 14 15 17 17 17 17 17 19 18 13 14 17 15 15 14 14 14 13 13 12 10 10 7 7 8 6 6 8 7 8 9 7 7 8 9 9 9 9 10 12 12 12 11 8 8 8 6 8 10 8 7 7 9 10 10 11 13 13 15 14 14 15 16 17 17 18
5 2 1 4 8 11 13 14 15 16 17 16 16 16 13 8 7 8 8 9 11 15 15 13 16 17 15 17 18 18 19 16 15 16 15 15 14 13 16 15 14 13 11 10 8 6 9 8 6 7 7 7 6 7 9 11 12 13 13 13 12 12 10 9 8 8 7 7 6 6 7 9 10 5 5 8 9 10 12 13 14 16 16 18 19 19 20 21
5 4 2 2 7 10 12 13 15 17 17 16 16 15 15 11 7 7 7 8 11 15 14 10 13 17 14 14 16 17 19 16 15 16 14 14 13 12 15 14 13 14 12 9 8 6 7 9 6 5 6 7 6 8 9 9 10 12 14 12 11 12 12 10 9 9 8 7 7 6 5 5 6 6 5 7 8 11 14 14 14 17 19 19 20 22 23 24
5 4 4 3 5 8 11 13 14 16 17 16 15 14 15 13 7 6 6 8 11 13 12 9 11 16 15 13 13 16 19 16 14 16 14 12 12 12 14 14 12 13 13 11 11 9 6 9 8 4 5 9 7 7 9 10 12 12 10 9 10 11 12 12 13 13 11 9 7 6 7 3 5 8 8 9 10 13 16 16 15 18 20 21 22 23 25 26
3 3 5 3 2 6 9 12 12 15 16 15 16 17 18 14 8 6 6 8 10 12 13 12 11 13 14 14 13 15 18 17 15 15 13 12 11 10 13 16 14 13 12 10 10 10 7 8 10 8 8 8 7 11 16 17 18 14 11 11 10 10 10 11 11 11 12 12 9 9 9 4 3 5 7 9 11 13 15 15 17 18 20 21 23 25 26 27
1 2 6 4 1 4 7 9 11 15 16 13 16 19 19 14 9 6 6 8 9 11 14 13 11 12 13 12 13 14 14 15 15 14 13 13 13 13 14 15 15 14 11 9 11 12 10 8 10 11 10 10 15 19 19 18 17 14 11 10 9 10 11 11 9 7 8 9 9 11 11 6 6 7 7 9 10 10 11 13 16 18 20 22 24 26 27 28
2 5 5 3 2 4 5 6 9 13 13 14 18 20 19 15 10 7 7 7 8 9 11 12 11 13 13 11 12 12 12 12 14 12 11 11 14 17 16 13 15 15 11 10 11 13 11 9 10 11 10 11 15 15 13 12 12 10 8 8 8 9 10 11 10 9 10 11 10 10 9 5 6 8 8 9 9 9 10 12 14 17 20 22 24 25 27 28
4 4 4 3 3 4 5 5 7 8 10 15 18 18 18 17 11 8 8 9 10 10 8 10 12 12 12 11 10 11 10 9 12 12 10 11 12 14 15 14 14 15 12 11 11 11 9 8 10 11 9 8 7 5 4 6 6 6 6 6 8 9 8 10 11 10 14 15 12 12 9 3 3 5 7 9 10 11 13 13 15 18 20 22 24 26 28 29
5 4 5 5 4 5 6 7 8 7 9 14 15 15 17 16 13 11 11 11 15 13 9 9 12 11 11 10 9 10 9 7 9 11 10 11 12 12 14 15 15 15 15 15 13 12 9 8 9 10 10 8 6 4 2 3 4 7 8 7 8 8 8 9 11 11 13 12 9 13 13 6 5 9 10 11 12 13 15 16 18 19 21 23 24 26 28 29
6 5 5 5 5 6 6 7 7 7 9 11 11 13 16 14 12 13 13 12 14 13 10 11 12 11 10 10 9 9 9 7 8 9 9 9 11 12 14 15 15 16 16 15 14 13 11 10 12 12 12 11 9 8 7 8 8 8 9 8 8 9 9 10 11 12 11 9 9 12 13 9 9 11 11 13 14 14 16 18 19 20 22 23 24 25 26 26
9 7 7 7 7 6 5 6 6 5 8 9 10 12 15 14 13 14 14 14 14 13 12 12 11 10 9 10 10 9 8 7 7 9 10 10 11 12 13 14 15 15 14 13 13 11 9 10 11 12 12 11 10 10 10 10 10 10 10 10 10 10 10 11 13 13 11 12 11 8 6 9 10 8 9 13 15 15 17 20 21 22 22 23 23 23 24 24
11 10 8 9 8 7 5 5 6 6 7 9 10 13 14 14 13 12 13 15 15 15 13 11 11 10 9 10 10 8 9 9 7 9 10 9 9 10 11 13 14 13 12 11 12 10 8 9 10 10 10 10 10 10 9 8 9 10 11 11 10 10 9 11 13 13 11 13 13 11 10 11 10 8 11 16 17 18 20 22 22 22 22 22 23 23 23 23
14 12 10 10 11 10 7 5 5 5 5 6 9 12 15 16 14 12 13 15 16 16 14 11 11 11 10 10 10 9 9 8 7 10 10 8 9 8 9 10 11 13 12 10 12 12 10 9 10 9 10 11 10 9 9 10 11 11 12 11 11 10 10 10 11 11 11 13 14 13 14 14 12 12 14 17 19 20 21 22 21 21 22 23 23 23 23 24
13 14 12 11 12 12 9 6 4 3 4 4 6 10 16 18 15 15 16 16 16 17 15 12 12 13 13 11 10 9 9 7 7 9 8 7 8 8 7 8 8 10 11 10 11 13 11 10 11 9 10 12 11 10 10 10 11 12 12 11 11 11 11 11 11 11 12 13 12 12 15 15 14 16 17 18 20 21 21 21 21 22 23 23 23 23 23 24
11 15 14 13 13 13 11 9 6 4 4 5 6 8 14 18 17 17 19 19 18 18 15 12 13 15 14 11 10 9 8 7 7 7 6 4 6 7 7 9 9 9 10 11 12 12 11 11 10 9 11 12 10 9 9 9 11 14 14 13 12 12 11 10 11 11 11 11 11 11 13 11 12 16 19 20 20 20 20 21 22 22 22 22 23 23 23 25
9 13 15 15 13 12 12 11 8 6 6 8 8 7 12 15 17 18 18 19 20 20 16 13 15 15 13 11 11 10 7 6 4 3 3 1 4 7 9 11 10 9 10 11 12 11 11 10 9 9 11 10 7 7 7 7 10 11 10 9 8 9 10 10 10 11 11 11 11 11 12 12 15 19 20 19 18 18 19 22 21 21 22 22 22 23 23 24
Wind_Direction
237 226 214 218 226 243 261 284 307 325 336 346 349 347 348 347 348 350 351 353 355 353 349 340 344 7 173 175 166 160 156 154 150 150 150 149 146 142 139 133 127 118 110 105 97 91 83 77 72 72 70 65 60 56 59 59 64 73 56 46 58 47 52 72 72 93 101 98 102 97 102 121 144 162 160 164 161 164 179 189 207 223 228 240 244 230 219 206
221 217 218 224 235 250 262 275 292 310 320 335 345 345 345 345 346 350 352 353 353 353 347 340 351 61 172 173 162 156 154 156 154 151 146 145 146 143 137 128 122 114 107 102 93 88 79 74 72 69 68 64 57 52 57 57 60 69 60 50 53 48 57 64 71 94 102 105 112 98 88 99 118 159 169 171 179 176 186 206 234 259 247 243 241 230 226 214
218 219 224 231 241 251 261 270 281 295 308 321 335 342 342 342 345 349 352 352 350 351 347 345 357 113 170 170 155 152 156 157 154 150 143 141 141 138 133 125 119 112 104 97 90 85 80 77 75 70 71 63 52 52 57 55 57 64 62 52 48 51 58 60 67 77 87 99 111 107 89 94 96 126 164 169 183 183 187 202 210 244 224 199 200 207 215 213
221 223 229 235 244 250 258 267 276 286 297 308 324 335 337 340 342 347 351 349 347 351 348 349 6 129 171 163 150 155 155 150 153 151 145 141 139 135 131 124 118 110 101 95 90 87 84 81 78 75 73 58 47 54 55 55 60 59 57 51 45 48 52 51 56 67 76 77 85 95 79 90 101 128 158 165 174 171 176 186 185 207 221 198 192 199 208 207
224 226 231 237 245 251 259 265 274 283 291 302 315 326 331 337 339 345 350 346 343 349 344 351 13 134 171 158 152 154 140 138 157 153 147 144 141 137 131 125 119 110 101 96 94 91 85 81 79 75 69 52 42 48 47 54 62 54 45 43 41 42 46 44 45 53 61 67 68 70 64 68 83 131 158 169 180 180 189 192 183 191 208 199 194 199 208 209
226 229 232 237 245 251 259 265 274 282 289 299 308 317 324 331 334 341 347 344 338 343 338 344 13 131 167 160 156 152 134 146 164 153 149 147 142 139 132 128 121 112 104 100 99 91 82 78 76 73 63 46 39 50 54 57 60 57 34 28 32 34 40 41 40 41 44 61 69 60 57 50 66 125 145 168 195 195 192 198 191 194 201 174 172 190 199 211
227 230 233 237 243 249 257 265 273 281 288 297 303 309 315 325 331 336 343 341 329 336 328 325 14 132 168 164 160 157 146 161 165 155 152 149 145 142 136 132 123 114 108 103 99 88 80 76 70 67 56 34 43 57 57 54 50 49 28 18 25 29 35 39 39 36 35 45 50 53 52 28 86 134 142 175 209 213 204 207 204 204 201 162 168 188 193 210
229 231 234 238 242 247 253 261 269 277 285 293 297 302 308 318 326 331 340 336 320 330 315 295 357 164 171 168 164 164 163 166 165 159 156 152 149 147 140 134 124 117 112 105 99 88 77 67 59 64 53 28 50 52 44 50 36 27 19 16 23 27 33 38 40 36 32 35 37 46 51 51 81 124 163 200 225 233 229 227 219 214 202 179 182 187 195 209
232 232 235 238 242 246 251 257 264 272 279 285 290 296 301 310 320 327 335 330 313 318 300 273 292 177 173 173 166 167 177 172 167 163 161 158 155 152 145 138 130 124 114 108 106 96 81 60 52 65 62 43 50 39 37 51 27 13 17 18 23 27 34 38 42 42 35 33 32 42 55 60 72 94 151 230 254 271 260 248 235 226 213 201 195 193 200 205
236 235 236 238 242 245 249 254 259 266 272 278 282 291 296 305 314 322 330 322 301 306 286 259 238 174 179 175 164 173 188 177 171 169 168 166 163 158 153 147 140 134 125 129 125 111 94 69 58 57 54 42 35 22 28 39 18 16 19 19 25 30 37 38 40 45 43 38 34 45 59 61 62 71 77 276 288 316 291 248 231 217 213 209 200 202 214 211
240 238 238 239 241 244 248 251 256 260 266 273 277 285 292 300 308 316 325 312 290 295 269 251 220 175 185 175 165 186 194 181 179 176 174 174 170 165 162 160 156 154 154 158 153 143 111 86 70 46 34 10 13 6 15 27 21 22 24 32 37 35 38 33 28 35 43 45 42 51 59 58 56 59 58 42 40 62 138 205 214 202 208 207 197 202 216 222
244 241 239 240 241 243 246 249 253 256 262 268 273 281 287 295 303 311 319 302 281 287 258 244 216 181 183 179 178 190 190 184 185 182 181 180 177 177 176 175 175 174 180 189 210 230 198 136 78 32 11 353 10 0 5 23 26 29 36 44 38 28 28 23 21 26 35 45 49 59 63 57 53 52 51 55 76 98 129 184 212 207 210 205 196 200 207 216
250 245 241 241 241 242 244 247 250 253 258 264 270 277 282 290 298 307 312 291 275 279 249 234 218 185 178 185 190 191 187 187 189 188 188 186 184 187 187 190 193 193 198 213 245 252 237 194 206 6 0 5 12 4 13 24 32 37 37 39 32 24 24 15 16 23 28 41 50 62 68 61 53 49 51 55 71 93 114 155 205 210 207 193 191 201 202 203
255 249 244 242 241 242 243 245 247 250 254 260 266 271 276 285 292 302 304 282 272 272 241 226 212 190 184 191 194 191 188 188 192 194 194 192 191 193 196 202 207 211 215 232 254 252 232 209 212 328 347 8 18 22 22 16 25 29 29 37 25 25 30 11 12 23 27 39 49 61 71 63 48 44 49 50 60 79 94 113 168 201 200 189 184 195 200 202
258 253 248 243 242 241 242 244 245 247 250 256 262 264 270 279 287 297 296 274 269 262 234 217 207 197 194 198 196 192 191 190 193 197 198 197 196 197 201 209 216 220 227 241 248 236 215 208 209 272 312 6 21 15 3 339 13 18 17 36 23 23 29 3 0 13 24 39 56 75 74 47 32 40 51 50 53 61 69 84 130 174 189 189 187 192 199 203
257 255 251 245 241 240 240 241 242 243 245 249 253 255 263 272 282 294 288 265 266 254 227 208 205 196 193 203 200 193 193 195 196 197 199 200 200 200 203 211 219 224 232 242 237 219 208 206 217 265 296 353 1 347 318 244 131 24 8 19 23 21 21 4 352 356 17 52 68 91 90 35 8 34 50 56 57 56 55 57 76 144 185 189 193 198 197 200
254 253 251 246 241 239 238 238 237 237 238 241 243 246 256 265 280 290 275 258 261 244 218 198 197 192 192 200 196 194 197 198 198 198 200 201 200 201 205 213 221 227 233 236 231 223 222 213 218 306 318 318 330 321 291 215 130 16 358 4 22 18 17 22 353 343 358 73 80 100 112 131 306 37 56 60 66 65 60 58 66 105 173 186 200 209 200 198
252 249 248 246 241 238 235 233 231 230 230 232 234 238 248 263 280 280 257 252 251 226 209 199 186 180 197 200 193 197 200 200 200 199 200 201 200 202 206 213 223 231 238 240 244 245 234 225 212 314 296 283 303 294 289 354 4 338 339 345 359 6 17 23 360 348 335 164 113 117 119 119 298 52 82 70 77 84 74 70 71 99 159 173 193 209 205 200
251 246 244 243 240 236 232 229 225 223 224 224 225 231 244 264 275 262 242 245 230 200 194 199 180 173 204 212 202 201 201 202 204 202 202 202 200 202 206 214 223 228 231 236 256 255 220 240 268 264 264 247 267 286 301 335 331 324 329 334 338 346 13 13 3 4 351 207 133 145 167 226 276 270 101 99 113 113 97 93 90 123 168 174 185 198 205 204
253 245 240 239 238 235 231 225 220 218 219 218 220 227 244 260 262 247 237 235 219 202 196 193 184 186 206 214 207 203 203 209 212 209 206 204 201 202 207 213 220 223 222 222 242 238 213 248 260 254 269 262 263 272 283 302 310 321 319 317 321 321 6 3 357 4 7 357 161 174 188 203 235 249 172 143 151 125 117 110 100 122 155 172 187 190 203 210
256 246 238 235 236 235 231 224 218 215 215 216 218 228 245 248 234 233 233 228 218 205 198 194 192 200 210 210 204 201 206 212 216 215 209 203 198 198 205 206 210 222 222 217 220 223 224 254 257 250 256 243 245 264 273 292 305 305 303 302 290 283 336 343 347 351 360 28 270 191 175 210 241 253 214 177 182 171 183 143 117 131 143 149 172 186 199 212
259 249 241 235 234 234 231 225 219 216 216 217 221 231 242 235 224 227 228 225 216 202 197 195 195 210 215 209 204 202 202 204 211 212 204 199 188 187 203 201 199 213 214 210 212 227 242 241 242 242 238 234 242 261 267 285 292 276 277 273 270 297 302 302 340 338 334 356 293 283 164 243 264 276 277 220 204 205 211 200 162 155 153 155 161 172 180 188
261 251 243 236 234 233 231 228 222 218 219 220 226 233 235 228 222 224 222 219 214 204 197 193 201 217 209 203 204 197 192 194 205 204 195 191 181 180 197 195 193 206 207 209 215 223 227 203 216 241 239 238 252 267 275 279 266 255 265 267 274 315 295 287 338 331 311 284 275 234 187 262 278 286 286 264 222 206 208 219 206 184 184 194 171 163 163 153
265 252 245 238 235 233 232 230 224 221 223 224 229 231 227 223 217 219 217 212 215 206 193 192 206 211 197 192 195 185 183 188 197 198 186 180 178 177 183 186 192 207 210 216 224 228 238 230 231 246 247 248 263 276 287 275 254 242 261 275 284 297 295 297 315 318 303 282 276 231 224 234 236 272 276 258 237 217 208 212 218 211 209 218 182 159 153 133
268 253 247 240 236 235 232 230 226 225 226 226 227 224 219 217 215 217 212 208 217 206 192 194 200 197 189 184 183 179 181 181 182 190 181 172 174 174 174 181 185 203 216 217 228 233 240 243 236 249 266 272 280 265 251 283 279 217 169 294 296 286 286 284 292 302 285 259 234 251 249 203 177 228 269 276 259 226 205 204 219 221 212 219 208 186 186 212
272 257 249 242 240 236 232 230 227 226 228 225 218 214 212 210 212 210 201 203 218 206 194 192 193 189 184 181 179 171 173 184 183 182 176 168 170 170 176 185 179 189 208 210 231 233 223 230 231 248 278 277 265 228 204 295 286 199 101 326 309 283 275 276 280 289 286 285 245 252 271 221 165 203 247 269 268 225 203 205 217 214 207 219 224 216 218 240
279 262 250 245 242 236 232 228 226 226 226 220 208 209 207 204 205 190 183 202 210 204 194 189 190 186 183 182 171 159 175 197 186 176 172 170 171 168 173 187 186 191 191 187 211 208 201 226 235 248 267 243 231 206 169 275 281 330 357 312 316 297 272 272 275 279 291 302 273 238 261 274 223 196 229 247 246 218 201 206 215 210 209 219 226 231 235 250
286 266 251 246 240 234 229 222 223 223 219 209 202 205 201 199 194 174 180 215 188 190 194 191 191 183 180 179 165 163 195 190 178 179 174 172 177 174 177 191 202 211 194 191 207 197 202 226 229 232 236 226 236 226 198 254 281 312 325 301 308 305 279 274 274 279 286 281 264 219 218 268 251 176 211 236 220 213 205 206 214 212 213 219 224 236 243 253
292 270 253 243 234 229 221 216 218 216 207 201 197 200 195 191 180 169 205 251 178 179 191 189 189 183 178 177 169 169 179 167 169 182 176 176 183 179 187 198 202 212 203 206 234 275 238 231 225 222 227 232 245 236 228 253 273 283 310 309 305 303 291 280 271 276 278 266 262 210 202 267 265 164 190 221 198 207 212 211 215 215 217 222 227 236 245 255
294 273 253 237 228 221 215 213 210 203 197 193 193 195 188 180 172 179 218 215 162 176 187 180 184 183 177 176 174 167 166 167 171 178 178 186 189 184 191 195 198 213 225 231 241 264 256 236 226 226 231 234 238 238 238 250 258 273 300 300 286 280 271 272 268 269 269 255 240 202 204 258 271 177 186 218 213 218 221 216 216 217 220 226 232 238 245 254
290 272 249 231 223 214 210 206 200 196 191 188 191 188 177 172 181 207 218 182 167 180 182 177 180 183 178 176 179 173 171 177 176 179 186 191 191 195 197 196 204 212 229 238 231 240 252 234 228 235 239 237 238 241 244 252 260 272 286 281 275 266 247 248 238 233 259 249 151 172 203 234 257 240 203 227 232 235 230 222 220 220 224 231 239 245 248 251
281 265 243 226 216 209 207 199 193 193 187 188 189 177 167 178 201 219 209 177 183 180 176 179 181 182 179 177 183 181 177 182 181 182 190 193 196 203 202 200 206 211 219 215 208 220 223 220 249 245 235 229 224 230 240 245 251 259 265 272 280 278 263 254 231 226 265 256 123 153 201 233 255 259 245 249 247 245 240 233 230 226 230 238 245 249 249 250
278 258 237 223 212 206 202 194 191 190 186 188 183 170 172 209 214 208 182 166 177 176 179 185 182 181 181 181 187 183 178 186 188 185 188 193 200 206 210 209 205 218 233 205 208 223 202 206 237 227 207 202 199 231 247 233 232 252 270 280 284 287 291 277 259 258 270 229 147 192 241 251 254 240 249 259 258 257 251 240 236 235 238 246 249 249 248 249
283 255 235 219 208 202 196 191 190 189 187 185 175 169 190 220 208 188 178 170 175 177 182 185 181 181 185 187 189 182 179 189 192 189 191 195 202 207 214 217 208 218 249 240 233 236 224 206 179 165 184 189 198 238 261 282 276 271 278 284 282 282 284 284 291 301 305 314 172 200 242 262 254 217 238 260 267 266 257 242 239 239 243 250 250 248 249 251
303 262 235 214 205 198 192 191 189 189 187 179 172 183 203 211 197 178 178 173 169 175 182 184 181 182 186 191 195 186 184 187 190 193 196 199 206 208 209 215 212 214 230 237 230 228 246 251 173 180 210 207 221 247 259 280 279 269 270 270 268 271 271 278 289 293 300 302 256 221 243 257 259 259 260 266 267 266 261 248 243 243 247 251 251 250 252 253
331 275 231 211 203 193 191 192 189 191 187 175 181 205 210 211 187 168 177 177 171 173 178 179 181 185 188 191 194 190 186 184 190 196 200 203 208 209 204 209 216 216 219 230 238 223 231 231 202 218 237 232 248 268 261 264 280 289 287 271 259 262 267 277 282 268 267 279 262 243 251 242 245 258 260 266 268 265 263 252 247 250 252 253 253 253 253 255
348 304 228 210 202 191 192 194 191 192 186 181 199 215 214 219 190 169 179 189 184 177 176 179 185 190 190 188 189 192 192 191 193 196 200 204 208 211 212 219 224 223 221 224 233 241 241 234 210 224 249 250 255 270 260 267 291 292 285 278 267 262 258 261 271 267 257 264 259 247 250 253 256 244 238 258 268 263 263 258 254 256 254 254 256 254 254 257
350 342 248 213 205 195 192 194 194 192 187 192 210 212 205 205 193 182 182 187 186 182 184 188 188 188 190 190 186 187 193 194 191 195 198 199 206 214 218 226 230 228 227 218 214 238 251 249 225 219 243 260 265 277 272 276 287 286 283 279 271 268 260 238 246 273 273 271 274 252 243 262 268 241 213 246 248 246 260 263 257 257 257 258 260 260 261 263
357 6 337 236 212 202 192 193 195 193 193 204 217 217 205 193 184 185 181 181 183 183 190 198 187 182 184 188 183 181 192 195 189 196 200 196 206 219 218 222 230 231 228 215 214 231 243 251 247 205 233 264 266 268 276 281 288 297 294 274 251 259 266 253 255 274 276 282 291 271 257 265 242 207 215 237 218 226 253 260 255 257 262 264 265 266 268 270
2 2 330 281 220 209 195 192 194 194 200 211 219 219 208 194 183 186 179 174 175 178 191 200 187 185 187 187 183 184 194 200 194 198 203 199 207 222 222 220 222 228 230 221 222 227 231 255 260 228 253 275 264 252 272 284 286 292 290 265 244 246 255 260 263 264 265 278 291 273 278 284 184 205 243 241 211 220 245 257 256 258 263 266 268 270 271 274
12 349 313 309 240 225 205 192 194 199 207 219 222 217 209 197 184 188 182 171 175 180 188 189 182 189 195 192 193 194 196 201 203 202 207 208 209 218 225 222 217 219 227 225 225 228 224 243 260 266 272 272 261 263 276 283 279 274 270 267 261 252 255 264 262 251 251 264 276 276 287 301 183 218 252 244 234 238 250 259 261 262 267 269 271 274 276 278
27 271 286 308 253 239 215 199 209 211 210 223 226 218 212 201 181 189 190 172 177 181 181 182 181 185 190 190 195 196 192 198 204 205 210 210 208 215 220 220 217 213 214 213 218 228 234 242 259 271 274 271 277 282 284 283 277 269 263 262 261 260 260 262 269 270 255 255 266 271 275 274 246 248 253 248 252 262 266 268 270 271 274 275 276 278 280 283
225 241 267 300 263 239 213 210 235 230 221 226 223 216 214 206 189 191 193 173 171 173 170 174 177 181 185 184 185 183 179 194 201 201 206 204 207 220 224 219 215 212 211 217 223 235 246 250 258 269 271 271 283 292 288 278 273 264 255 250 249 253 252 255 274 290 275 268 273 269 264 253 240 242 247 252 259 268 273 276 278 278 278 279 280 282 284 287
230 240 253 274 266 237 209 218 240 237 236 234 226 219 218 213 198 189 191 176 165 160 159 169 171 173 177 170 165 167 166 184 198 197 199 203 210 222 223 217 214 210 209 216 225 239 248 250 260 273 274 257 259 275 261 255 254 241 239 245 245 246 250 258 266 269 266 267 271 273 274 272 246 249 253 260 266 270 274 276 276 277 279 282 285 287 289 291
224 243 252 256 257 237 224 231 234 235 245 241 231 225 221 217 207 195 190 180 168 157 150 166 167 163 166 160 153 163 163 164 190 196 197 207 216 218 217 217 215 214 217 222 228 236 244 253 260 268 279 278 281 296 268 247 254 248 248 253 254 253 253 260 265 264 263 262 257 262 268 286 312 294 282 278 277 278 279 280 281 283 285 288 290 292 293 295
218 225 239 243 245 241 236 238 241 248 250 244 237 229 220 216 213 203 192 184 177 168 157 161 161 154 158 158 152 163 171 170 183 187 184 201 215 215 214 217 218 220 225 230 236 241 249 259 257 255 266 279 292 298 278 265 265 265 262 256 257 260 256 258 263 265 271 274 267 261 259 271 297 295 286 286 286 287 288 287 288 290 291 292 294 295 297 299
222 217 216 219 222 227 237 243 245 251 247 239 234 227 217 211 211 207 198 192 187 177 166 162 160 157 159 161 157 161 167 167 173 176 176 194 216 221 219 219 222 225 229 234 240 246 255 261 257 254 258 264 272 276 272 267 261 261 266 264 261 263 260 255 255 262 276 277 273 276 268 270 282 282 280 287 289 290 292 292 294 295 295 297 299 301 303 304
222 221 217 213 204 194 204 231 235 239 242 236 229 223 214 207 206 204 201 199 190 179 172 170 168 164 162 162 158 155 154 156 166 180 187 199 212 219 222 225 231 235 240 252 254 252 259 258 254 257 260 261 266 268 267 267 262 261 265 266 263 261 261 257 256 264 271 265 270 294 301 287 283 277 278 285 288 291 293 295 297 299 301 304 308 310 312 310
223 226 223 218 211 202 202 216 225 237 243 234 229 223 211 203 202 202 199 196 192 183 176 177 177 169 162 161 156 151 151 156 171 181 185 191 196 202 211 225 243 249 249 258 260 258 260 256 252 258 264 261 261 263 265 266 267 268 266 263 262 260 260 258 258 261 261 262 272 286 291 287 277 269 276 285 290 294 296 298 301 304 309 312 314 316 316 313
226 227 225 221 221 220 219 223 230 256 270 252 234 222 210 203 202 204 199 190 188 187 180 179 179 170 160 155 153 154 152 152 165 168 160 169 192 206 214 221 239 251 243 240 250 258 259 258 258 262 267 262 253 256 267 266 265 267 265 263 260 258 258 257 258 260 262 269 273 273 282 285 271 267 280 290 294 299 301 304 308 311 314 316 317 318 316 311
234 229 227 224 224 223 224 228 230 249 272 261 250 226 210 205 204 205 199 189 186 186 184 186 185 176 163 152 154 162 158 145 147 153 144 156 201 217 226 232 234 239 239 232 239 251 253 257 262 259 263 261 244 247 265 265 266 268 263 259 257 254 255 253 254 257 258 266 273 274 282 280 263 272 290 298 302 305 307 309 311 311 314 316 318 318 315 310
242 232 228 228 230 229 225 227 231 236 246 255 261 240 216 210 207 202 198 196 194 189 186 191 189 178 165 159 164 170 168 156 149 159 160 206 261 242 238 242 236 230 234 231 232 238 238 247 257 251 257 260 238 244 263 259 267 265 245 241 248 245 248 253 257 263 266 266 267 271 280 278 273 283 296 301 302 303 304 305 307 308 312 316 319 320 316 312
Height
3197 3197 3197 3197 3197 3197 3197 3196 3196 3196 3195 3195 3195 3194 3193 3193 3192 3190 3189 3187 3186 3186 3185 3184 3184 3183 3184 3184 3185 3185 3186 3186 3187 3187 3188 3188 3189 3189 3189 3189 3190 3190 3191 3191 3192 3191 3192 3192 3192 3191 3191 3190 3190 3190 3190 3189 3188 3187 3189 3191 3190 3190 3189 3189 3189 3189 3189 3189 3189 3189 3189 3190 3191 3191 3192 3193 3193 3194 3195 3195 3196 3197 3197 3198 3198 3198 3199 3200
3196 3196 3196 3196 3196 3196 3196 3196 3195 3195 3195 3195 3194 3194 3193 3192 3191 3190 3188 3187 3186 3185 3185 3184 3184 3184 3184 3185 3185 3186 3186 3187 3187 3188 3188 3189 3189 3189 3190 3191 3191 3191 3192 3192 3192 3192 3193 3193 3193 3192 3191 3191 3191 3191 3191 3190 3189 3188 3190 3192 3191 3190 3190 3189 3189 3189 3189 3189 3189 3189 3190 3190 3191 3191 3192 3193 3193 3194 3195 3196 3196 3197 3197 3198 3198 3198 3199 3199
3195 3195 3195 3195 3195 3195 3195 3195 3195 3195 3194 3194 3194 3193 3193 3192 3191 3190 3188 3187 3186 3185 3185 3184 3184 3184 3184 3185 3185 3186 3187 3187 3188 3189 3189 3189 3190 3190 3191 3192 3192 3192 3193 3193 3193 3193 3194 3193 3193 3193 3192 3192 3193 3193 3192 3191 3191 3190 3191 3193 3192 3191 3190 3190 3190 3190 3190 3190 3190 3190 3190 3190 3191 3191 3192 3193 3193 3194 3195 3196 3197 3197 3197 3197 3197 3198 3198 3199
3193 3194 3194 3194 3194 3194 3194 3194 3194 3194 3194 3193 3193 3193 3192 3191 3190 3189 3188 3187 3186 3185 3185 3184 3184 3184 3184 3185 3186 3186 3187 3188 3189 3189 3190 3190 3191 3191 3192 3192 3193 3193 3193 3193 3194 3194 3194 3194 3194 3194 3193 3193 3194 3193 3192 3192 3192 3191 3192 3194 3193 3192 3191 3191 3191 3190 3190 3190 3190 3191 3191 3191 3191 3191 3192 3193 3193 3194 3195 3195 3196 3197 3197 3197 3197 3197 3198 3198
3192 3192 3193 3193 3193 3193 3193 3193 3193 3193 3193 3193 3192 3192 3191 3191 3190 3189 3188 3187 3186 3185 3185 3185 3184 3184 3185 3185 3186 3187 3188 3190 3190 3190 3190 3191 3191 3192 3192 3193 3194 3194 3194 3194 3195 3195 3195 3195 3195 3194 3194 3195 3195 3195 3194 3194 3193 3193 3193 3193 3193 3192 3192 3192 3191 3191 3191 3190 3191 3191 3191 3191 3191 3191 3192 3192 3193 3194 3194 3195 3195 3197 3197 3196 3197 3197 3197 3197
3190 3191 3191 3192 3192 3192 3192 3192 3192 3192 3192 3192 3192 3191 3191 3190 3189 3188 3187 3186 3186 3185 3185 3185 3184 3184 3185 3186 3187 3187 3188 3190 3190 3190 3191 3191 3192 3193 3193 3194 3194 3194 3194 3195 3195 3195 3195 3195 3195 3195 3195 3196 3196 3196 3195 3194 3193 3194 3194 3193 3193 3193 3192 3192 3192 3191 3191 3191 3191 3191 3191 3191 3191 3192 3192 3192 3192 3193 3194 3194 3195 3195 3195 3196 3196 3196 3196 3196
3188 3189 3189 3190 3190 3191 3191 3191 3191 3191 3191 3191 3191 3190 3190 3189 3188 3188 3187 3186 3185 3185 3185 3185 3185 3185 3185 3186 3187 3188 3188 3189 3190 3191 3191 3192 3192 3193 3194 3194 3194 3195 3195 3195 3195 3196 3196 3196 3196 3196 3197 3198 3197 3196 3196 3195 3194 3194 3195 3194 3193 3193 3192 3192 3192 3192 3192 3191 3191 3191 3191 3191 3191 3192 3192 3192 3192 3193 3193 3194 3194 3195 3195 3195 3195 3195 3195 3195
3186 3187 3188 3188 3189 3189 3189 3190 3190 3190 3190 3190 3190 3189 3189 3188 3188 3187 3186 3186 3185 3185 3185 3185 3185 3185 3185 3186 3187 3188 3189 3189 3190 3191 3192 3192 3193 3194 3194 3195 3195 3195 3195 3196 3196 3196 3196 3197 3197 3197 3198 3198 3197 3197 3196 3196 3195 3195 3195 3194 3193 3193 3193 3193 3192 3192 3192 3192 3191 3191 3191 3191 3191 3192 3192 3192 3192 3193 3193 3193 3194 3194 3195 3195 3195 3195 3194 3194
3185 3185 3186 3186 3187 3187 3188 3188 3189 3189 3189 3189 3189 3188 3188 3188 3187 3187 3186 3185 3185 3184 3184 3184 3185 3185 3185 3186 3187 3189 3190 3190 3190 3191 3192 3192 3193 3194 3194 3195 3195 3196 3196 3196 3196 3197 3197 3198 3198 3198 3198 3198 3197 3197 3197 3197 3197 3196 3195 3195 3194 3194 3193 3193 3193 3192 3192 3192 3192 3192 3192 3192 3191 3192 3192 3192 3192 3193 3193 3193 3193 3194 3194 3194 3194 3194 3194 3193
3183 3183 3184 3184 3185 3186 3186 3187 3187 3188 3188 3188 3188 3187 3187 3187 3186 3186 3185 3185 3184 3184 3184 3184 3184 3184 3185 3186 3188 3190 3189 3190 3191 3191 3192 3193 3193 3194 3194 3195 3195 3196 3196 3196 3197 3197 3197 3198 3198 3198 3198 3198 3198 3198 3197 3197 3197 3196 3196 3195 3194 3194 3194 3194 3194 3193 3193 3192 3192 3192 3192 3192 3192 3192 3193 3192 3192 3193 3193 3193 3193 3193 3194 3194 3194 3194 3193 3193
3181 3181 3182 3183 3183 3184 3185 3185 3186 3186 3186 3186 3186 3186 3186 3186 3185 3185 3184 3184 3184 3183 3183 3184 3184 3184 3185 3186 3188 3189 3189 3189 3191 3191 3192 3193 3194 3194 3195 3195 3196 3196 3196 3197 3197 3197 3197 3198 3198 3198 3198 3199 3198 3198 3197 3197 3197 3196 3196 3196 3195 3195 3195 3194 3194 3194 3194 3193 3193 3193 3193 3193 3193 3193 3193 3193 3192 3192 3192 3193 3193 3193 3193 3193 3193 3193 3193 3193
3179 3179 3180 3181 3181 3182 3183 3183 3184 3185 3185 3185 3185 3185 3185 3185 3185 3184 3184 3183 3183 3183 3183 3183 3184 3184 3184 3186 3186 3187 3187 3189 3190 3191 3192 3193 3194 3195 3195 3196 3196 3196 3197 3197 3197 3198 3198 3198 3198 3198 3199 3199 3198 3199 3198 3197 3197 3197 3196 3196 3196 3195 3195 3195 3194 3194 3194 3194 3194 3193 3193 3194 3194 3194 3193 3193 3192 3192 3192 3192 3193 3193 3193 3193 3193 3193 3193 3193
3177 3177 3178 3179 3179 3180 3181 3181 3182 3183 3183 3183 3184 3184 3184 3184 3184 3183 3183 3182 3182 3182 3182 3183 3183 3183 3184 3185 3185 3186 3187 3188 3190 3191 3192 3193 3194 3195 3196 3196 3197 3197 3197 3197 3198 3198 3198 3198 3198 3198 3198 3198 3198 3199 3198 3197 3197 3197 3197 3197 3197 3196 3196 3195 3195 3194 3194 3194 3195 3194 3194 3194 3194 3194 3194 3193 3192 3192 3192 3192 3192 3193 3193 3193 3193 3193 3193 3192
3175 3175 3176 3176 3177 3178 3179 3180 3180 3181 3182 3182 3182 3183 3183 3183 3183 3182 3182 3181 3182 3182 3182 3182 3182 3183 3183 3184 3184 3186 3187 3188 3189 3191 3192 3193 3194 3195 3196 3196 3197 3197 3197 3198 3198 3198 3198 3198 3198 3199 3199 3198 3199 3198 3198 3199 3198 3198 3198 3197 3197 3197 3196 3196 3195 3195 3194 3194 3195 3194 3194 3195 3195 3195 3194 3194 3193 3192 3192 3192 3192 3192 3192 3192 3192 3192 3192 3192
3173 3173 3174 3174 3175 3176 3177 3178 3178 3179 3180 3180 3181 3181 3181 3181 3181 3181 3181 3181 3181 3181 3181 3181 3182 3182 3183 3183 3184 3185 3186 3188 3189 3190 3191 3192 3194 3195 3196 3196 3197 3197 3198 3198 3198 3198 3198 3199 3199 3199 3199 3199 3199 3199 3200 3200 3199 3199 3198 3198 3198 3197 3197 3196 3195 3195 3195 3194 3195 3195 3195 3195 3195 3195 3195 3194 3194 3193 3193 3192 3192 3192 3192 3192 3192 3192 3192 3192
3171 3172 3172 3172 3173 3174 3175 3176 3177 3178 3178 3179 3179 3180 3180 3180 3180 3180 3180 3180 3180 3180 3180 3181 3181 3182 3183 3183 3183 3185 3186 3187 3188 3189 3190 3192 3193 3194 3195 3196 3197 3198 3198 3198 3198 3198 3199 3199 3199 3199 3199 3200 3200 3201 3201 3200 3199 3199 3199 3198 3198 3198 3197 3197 3196 3195 3195 3194 3195 3195 3195 3196 3195 3195 3195 3195 3194 3194 3193 3193 3193 3192 3192 3192 3192 3192 3192 3192
3170 3170 3170 3171 3171 3172 3173 3174 3175 3176 3177 3177 3178 3179 3179 3179 3179 3179 3179 3179 3179 3179 3180 3180 3181 3181 3182 3182 3183 3184 3185 3185 3187 3188 3189 3191 3192 3194 3195 3196 3197 3198 3198 3198 3199 3199 3199 3199 3200 3200 3200 3201 3201 3201 3200 3198 3198 3199 3199 3199 3199 3198 3198 3197 3196 3195 3195 3195 3195 3195 3195 3196 3195 3195 3195 3195 3195 3194 3194 3193 3193 3192 3192 3192 3192 3192 3192 3192
3168 3168 3169 3169 3170 3170 3171 3172 3173 3174 3175 3176 3177 3177 3178 3178 3178 3178 3178 3178 3178 3179 3179 3180 3180 3181 3182 3181 3182 3183 3183 3184 3186 3187 3188 3190 3192 3193 3195 3196 3197 3198 3199 3199 3199 3199 3199 3199 3200 3201 3202 3201 3201 3201 3199 3198 3199 3200 3200 3199 3198 3198 3198 3198 3197 3195 3195 3195 3195 3195 3195 3196 3195 3195 3195 3195 3195 3194 3194 3194 3193 3192 3192 3192 3191 3191 3192 3192
3166 3167 3167 3168 3168 3169 3169 3170 3171 3172 3173 3174 3175 3176 3176 3177 3177 3177 3177 3177 3177 3178 3179 3179 3180 3181 3181 3181 3181 3181 3183 3184 3185 3186 3188 3189 3191 3193 3194 3196 3197 3198 3200 3201 3200 3200 3200 3200 3201 3201 3201 3201 3201 3201 3200 3200 3200 3200 3200 3199 3199 3198 3198 3198 3197 3195 3195 3195 3195 3195 3195 3196 3196 3195 3195 3195 3195 3194 3194 3194 3193 3193 3192 3192 3191 3191 3192 3192
3165 3165 3166 3166 3167 3167 3168 3169 3170 3171 3172 3173 3174 3175 3175 3175 3176 3176 3176 3176 3176 3177 3177 3178 3179 3180 3180 3180 3181 3181 3183 3183 3185 3186 3187 3189 3190 3192 3194 3196 3197 3198 3200 3201 3202 3200 3200 3200 3201 3201 3201 3201 3201 3200 3200 3200 3200 3200 3200 3199 3199 3198 3197 3197 3197 3196 3195 3195 3195 3195 3195 3196 3195 3195 3195 3195 3194 3194 3194 3193 3193 3193 3192 3192 3192 3192 3192 3192
3163 3164 3164 3165 3165 3166 3167 3168 3169 3170 3171 3172 3173 3174 3174 3174 3175 3175 3175 3175 3175 3176 3177 3177 3178 3179 3179 3180 3180 3181 3182 3183 3184 3185 3186 3188 3190 3192 3194 3195 3198 3199 3199 3200 3200 3200 3199 3200 3201 3200 3200 3200 3200 3199 3199 3199 3199 3199 3199 3199 3198 3197 3197 3197 3197 3196 3195 3195 3196 3195 3195 3195 3194 3194 3194 3194 3195 3194 3194 3194 3193 3193 3193 3192 3192 3192 3192 3192
3162 3162 3163 3163 3164 3165 3165 3166 3167 3168 3170 3171 3172 3172 3173 3173 3173 3173 3174 3174 3175 3175 3176 3177 3177 3178 3178 3179 3180 3181 3181 3182 3183 3184 3186 3187 3190 3193 3194 3195 3197 3199 3199 3199 3199 3200 3200 3200 3200 3200 3199 3199 3199 3199 3199 3199 3199 3199 3199 3198 3197 3196 3197 3196 3196 3196 3195 3195 3196 3195 3195 3195 3194 3194 3194 3194 3194 3194 3194 3194 3193 3193 3193 3192 3192 3192 3192 3191
3160 3161 3161 3162 3162 3163 3164 3165 3166 3167 3169 3169 3170 3171 3171 3171 3172 3172 3173 3174 3174 3174 3175 3176 3177 3177 3178 3179 3179 3180 3181 3183 3183 3183 3185 3187 3189 3192 3194 3195 3197 3198 3199 3198 3199 3200 3199 3199 3199 3199 3198 3198 3199 3199 3198 3198 3198 3198 3198 3197 3196 3196 3197 3195 3195 3196 3195 3195 3195 3194 3195 3194 3193 3193 3193 3193 3193 3194 3194 3193 3193 3193 3192 3192 3192 3192 3191 3191
3159 3159 3160 3160 3161 3162 3163 3164 3165 3166 3167 3168 3169 3169 3170 3170 3171 3171 3172 3173 3173 3173 3174 3176 3176 3177 3178 3178 3179 3180 3182 3183 3183 3184 3185 3187 3189 3191 3193 3195 3196 3197 3198 3198 3198 3198 3198 3198 3198 3198 3198 3198 3199 3198 3198 3198 3197 3197 3198 3197 3196 3196 3197 3196 3195 3195 3195 3194 3194 3194 3194 3193 3193 3193 3192 3192 3192 3193 3193 3193 3193 3193 3192 3192 3192 3192 3191 3191
3158 3158 3158 3159 3159 3160 3161 3163 3164 3165 3166 3167 3168 3168 3169 3169 3170 3171 3171 3172 3173 3173 3174 3175 3175 3176 3177 3178 3179 3180 3181 3183 3184 3184 3185 3187 3189 3191 3193 3194 3195 3197 3198 3198 3198 3198 3198 3197 3197 3197 3198 3198 3198 3198 3198 3198 3196 3196 3196 3197 3197 3196 3196 3196 3195 3195 3193 3192 3193 3193 3191 3189 3191 3192 3192 3192 3191 3191 3192 3192 3192 3192 3192 3192 3192 3192 3191 3191
3157 3157 3157 3158 3158 3159 3160 3161 3163 3164 3165 3166 3166 3167 3167 3168 3169 3170 3171 3172 3172 3172 3173 3174 3175 3176 3177 3178 3179 3179 3182 3183 3183 3184 3185 3187 3189 3191 3193 3193 3194 3196 3196 3196 3197 3197 3197 3196 3196 3197 3197 3198 3198 3198 3198 3197 3196 3195 3195 3196 3196 3196 3196 3196 3195 3194 3192 3190 3192 3193 3190 3187 3189 3191 3191 3191 3190 3190 3191 3191 3191 3192 3192 3191 3191 3191 3191 3191
3156 3156 3156 3157 3157 3158 3159 3160 3161 3162 3163 3164 3165 3166 3166 3167 3168 3169 3171 3171 3170 3170 3172 3173 3174 3175 3176 3178 3178 3180 3182 3182 3183 3184 3185 3187 3188 3190 3192 3194 3194 3195 3195 3195 3195 3195 3195 3196 3196 3197 3197 3198 3197 3196 3197 3197 3196 3194 3194 3196 3196 3196 3196 3195 3195 3193 3192 3191 3191 3192 3192 3189 3187 3189 3189 3189 3189 3189 3189 3190 3190 3190 3191 3190 3191 3191 3191 3190
3155 3155 3155 3156 3156 3157 3158 3159 3160 3161 3162 3163 3164 3165 3165 3167 3168 3169 3170 3169 3166 3168 3170 3171 3172 3174 3175 3177 3178 3180 3181 3182 3184 3184 3185 3186 3188 3189 3191 3193 3194 3194 3194 3194 3194 3194 3195 3195 3196 3196 3197 3197 3196 3195 3196 3197 3196 3194 3195 3196 3195 3195 3194 3194 3194 3192 3192 3192 3189 3189 3191 3189 3185 3186 3188 3189 3189 3189 3188 3189 3189 3189 3189 3190 3190 3190 3190 3190
3154 3154 3154 3155 3155 3156 3156 3157 3159 3160 3161 3162 3163 3163 3165 3166 3167 3169 3169 3166 3164 3167 3168 3170 3172 3173 3175 3177 3178 3179 3180 3181 3183 3184 3185 3186 3187 3189 3190 3191 3193 3193 3193 3193 3193 3193 3194 3194 3194 3194 3195 3196 3195 3195 3195 3196 3196 3195 3194 3194 3194 3194 3193 3193 3192 3191 3191 3191 3187 3187 3190 3188 3183 3184 3187 3188 3189 3188 3187 3187 3188 3188 3188 3189 3189 3189 3189 3189
3154 3153 3154 3154 3154 3155 3155 3156 3157 3159 3160 3161 3162 3163 3164 3165 3167 3169 3168 3165 3164 3166 3167 3169 3171 3172 3174 3176 3177 3179 3180 3181 3182 3183 3185 3186 3187 3189 3190 3190 3191 3192 3193 3193 3192 3193 3193 3192 3193 3193 3194 3194 3194 3194 3194 3195 3195 3194 3194 3194 3193 3192 3192 3192 3191 3191 3190 3187 3184 3186 3189 3188 3184 3182 3185 3186 3187 3186 3186 3186 3186 3187 3187 3187 3188 3188 3188 3188
3153 3153 3153 3153 3153 3154 3154 3155 3157 3158 3159 3160 3161 3162 3164 3165 3167 3167 3164 3163 3164 3165 3166 3168 3170 3171 3173 3175 3177 3178 3180 3181 3182 3183 3185 3186 3187 3188 3189 3190 3191 3192 3193 3193 3192 3192 3192 3192 3192 3192 3192 3192 3193 3193 3193 3194 3193 3194 3194 3193 3191 3190 3189 3189 3189 3190 3187 3183 3183 3185 3187 3189 3185 3182 3183 3184 3184 3185 3185 3185 3185 3185 3186 3186 3186 3186 3186 3186
3152 3152 3152 3152 3152 3153 3154 3154 3156 3157 3158 3159 3161 3162 3164 3166 3166 3164 3161 3162 3164 3164 3166 3167 3168 3171 3173 3176 3177 3178 3179 3181 3181 3183 3185 3186 3187 3188 3188 3190 3191 3191 3190 3190 3190 3191 3191 3191 3191 3190 3190 3191 3192 3193 3193 3192 3192 3193 3193 3192 3190 3187 3186 3186 3185 3185 3183 3181 3183 3186 3186 3187 3184 3182 3182 3182 3183 3184 3183 3183 3184 3184 3184 3184 3185 3185 3185 3185
3151 3151 3151 3151 3151 3152 3153 3154 3155 3156 3157 3159 3160 3162 3164 3165 3163 3161 3161 3162 3163 3163 3165 3167 3168 3171 3173 3175 3177 3177 3179 3180 3181 3183 3184 3186 3187 3188 3188 3188 3189 3189 3188 3189 3189 3189 3189 3189 3190 3190 3189 3190 3191 3192 3191 3190 3191 3192 3191 3190 3189 3186 3186 3185 3181 3180 3180 3180 3183 3185 3185 3184 3181 3181 3181 3181 3182 3182 3182 3182 3182 3182 3183 3183 3183 3183 3183 3183
3150 3150 3150 3150 3151 3151 3152 3153 3154 3155 3156 3158 3160 3162 3164 3163 3160 3160 3162 3162 3161 3162 3164 3166 3168 3170 3172 3174 3175 3176 3178 3180 3180 3182 3183 3185 3186 3187 3187 3187 3188 3188 3189 3189 3189 3188 3186 3186 3188 3189 3189 3190 3190 3190 3190 3190 3191 3191 3190 3191 3190 3187 3187 3184 3180 3179 3178 3179 3182 3184 3183 3180 3179 3179 3180 3180 3180 3180 3180 3181 3181 3181 3181 3182 3182 3182 3182 3182
3149 3149 3149 3149 3150 3151 3151 3152 3153 3155 3156 3157 3160 3162 3163 3161 3159 3160 3161 3161 3161 3162 3164 3165 3168 3170 3172 3173 3174 3175 3177 3178 3179 3181 3182 3184 3184 3185 3186 3186 3187 3188 3189 3189 3188 3188 3187 3186 3186 3188 3189 3189 3190 3190 3190 3190 3190 3189 3190 3190 3188 3187 3187 3184 3182 3181 3182 3181 3180 3180 3180 3179 3178 3178 3178 3179 3179 3179 3179 3179 3180 3180 3180 3180 3180 3180 3180 3180
3149 3149 3149 3149 3149 3150 3151 3152 3152 3154 3155 3157 3159 3161 3160 3159 3159 3159 3159 3160 3161 3162 3163 3165 3167 3169 3170 3171 3173 3174 3176 3176 3178 3180 3181 3182 3183 3184 3184 3185 3185 3187 3188 3188 3187 3187 3187 3186 3186 3187 3188 3188 3189 3189 3189 3190 3189 3188 3189 3188 3186 3186 3187 3185 3182 3182 3183 3182 3178 3177 3177 3177 3177 3177 3176 3177 3177 3177 3178 3178 3178 3179 3179 3179 3179 3178 3179 3178
3149 3148 3148 3148 3149 3149 3150 3151 3152 3153 3155 3156 3158 3159 3159 3159 3158 3158 3158 3159 3159 3161 3163 3164 3166 3167 3168 3169 3171 3173 3175 3175 3176 3178 3179 3180 3181 3182 3183 3183 3184 3185 3186 3187 3187 3187 3186 3185 3185 3187 3188 3187 3188 3188 3188 3188 3188 3188 3188 3185 3184 3185 3186 3185 3183 3180 3180 3178 3174 3174 3175 3175 3174 3174 3174 3175 3176 3176 3177 3177 3177 3177 3177 3177 3177 3177 3177 3177
3149 3148 3148 3148 3148 3148 3149 3150 3151 3153 3154 3155 3156 3156 3157 3158 3157 3157 3157 3158 3159 3160 3162 3163 3164 3165 3166 3167 3169 3171 3173 3174 3175 3176 3177 3178 3179 3180 3181 3182 3183 3184 3184 3185 3186 3186 3186 3185 3184 3185 3187 3186 3186 3187 3186 3186 3186 3187 3186 3184 3185 3184 3182 3183 3183 3180 3177 3174 3171 3170 3173 3174 3173 3173 3174 3175 3176 3176 3176 3176 3176 3176 3176 3175 3175 3175 3174 3174
3149 3148 3148 3148 3148 3148 3149 3149 3151 3152 3153 3154 3155 3156 3156 3157 3157 3157 3157 3157 3158 3159 3161 3162 3162 3164 3165 3166 3168 3170 3171 3172 3174 3175 3176 3177 3178 3178 3180 3181 3181 3182 3183 3184 3186 3186 3186 3185 3183 3183 3185 3186 3186 3186 3185 3184 3184 3184 3183 3183 3184 3183 3182 3181 3181 3179 3176 3174 3171 3170 3170 3171 3171 3172 3174 3175 3176 3176 3175 3174 3175 3174 3174 3173 3173 3173 3172 3172
3149 3149 3148 3148 3148 3148 3148 3149 3150 3151 3152 3153 3154 3155 3155 3155 3156 3156 3156 3157 3157 3158 3160 3161 3162 3163 3164 3165 3167 3168 3170 3171 3172 3174 3175 3175 3177 3177 3178 3179 3180 3181 3182 3183 3184 3185 3186 3186 3183 3182 3184 3184 3184 3184 3184 3184 3183 3183 3182 3182 3182 3181 3181 3180 3178 3178 3177 3174 3172 3171 3169 3168 3169 3171 3172 3173 3175 3175 3173 3173 3173 3173 3172 3172 3171 3170 3170 3170
3149 3149 3148 3147 3147 3148 3148 3149 3150 3150 3151 3152 3153 3153 3153 3154 3155 3155 3156 3156 3156 3157 3158 3160 3161 3162 3163 3164 3166 3167 3168 3170 3171 3173 3174 3174 3176 3176 3176 3177 3179 3180 3181 3182 3183 3184 3185 3185 3184 3182 3182 3182 3182 3182 3182 3182 3181 3181 3181 3181 3180 3179 3180 3178 3175 3175 3176 3174 3173 3172 3169 3168 3168 3170 3171 3171 3172 3172 3172 3172 3171 3171 3170 3170 3169 3169 3168 3168
3149 3150 3149 3147 3147 3148 3148 3149 3149 3149 3150 3151 3151 3151 3152 3153 3154 3155 3155 3155 3156 3157 3157 3159 3160 3161 3162 3163 3164 3165 3167 3169 3170 3171 3172 3173 3174 3174 3174 3176 3177 3178 3180 3182 3182 3182 3183 3184 3183 3182 3181 3181 3180 3179 3179 3178 3178 3178 3179 3179 3179 3179 3179 3177 3175 3173 3174 3173 3173 3172 3170 3168 3168 3169 3169 3170 3170 3170 3170 3170 3170 3169 3169 3168 3168 3167 3166 3166
3149 3149 3148 3147 3147 3147 3148 3150 3149 3149 3149 3150 3149 3150 3151 3152 3154 3154 3155 3155 3156 3157 3158 3159 3159 3160 3161 3162 3163 3164 3166 3167 3169 3170 3171 3172 3172 3172 3173 3175 3176 3178 3180 3181 3181 3180 3181 3182 3181 3181 3179 3179 3178 3176 3176 3175 3175 3176 3177 3177 3177 3177 3177 3176 3175 3174 3173 3172 3171 3171 3168 3166 3166 3167 3168 3168 3169 3169 3169 3168 3168 3168 3167 3166 3165 3164 3164 3163
3148 3148 3147 3147 3147 3147 3148 3149 3149 3149 3149 3148 3148 3150 3151 3152 3153 3153 3154 3155 3156 3157 3158 3159 3159 3160 3161 3162 3163 3164 3165 3166 3167 3168 3170 3170 3171 3171 3173 3174 3175 3177 3178 3179 3179 3179 3180 3180 3180 3179 3177 3175 3174 3173 3173 3174 3174 3176 3176 3176 3175 3176 3176 3176 3175 3175 3174 3171 3171 3170 3166 3165 3166 3167 3167 3167 3167 3167 3167 3167 3166 3166 3165 3164 3163 3162 3161 3160
3147 3147 3147 3147 3146 3146 3147 3147 3148 3148 3148 3147 3148 3149 3150 3151 3152 3153 3153 3154 3155 3156 3157 3158 3159 3159 3160 3161 3162 3163 3164 3165 3166 3167 3168 3169 3170 3171 3172 3173 3174 3175 3176 3177 3177 3178 3179 3179 3179 3178 3176 3173 3172 3172 3173 3174 3175 3175 3175 3175 3174 3175 3175 3175 3174 3174 3171 3170 3170 3170 3167 3165 3165 3165 3166 3166 3166 3166 3165 3165 3164 3164 3163 3162 3161 3160 3158 3157
3146 3147 3147 3146 3146 3146 3146 3146 3146 3146 3146 3146 3147 3148 3149 3151 3152 3152 3153 3154 3155 3156 3157 3158 3159 3159 3160 3161 3162 3163 3164 3165 3166 3167 3168 3169 3169 3170 3171 3172 3173 3174 3175 3175 3176 3177 3177 3177 3177 3177 3176 3175 3173 3173 3173 3174 3174 3174 3174 3174 3174 3173 3173 3173 3173 3172 3170 3168 3168 3168 3167 3166 3166 3165 3165 3164 3164 3164 3164 3163 3162 3162 3161 3160 3159 3157 3156 3154
3145 3145 3146 3146 3145 3145 3146 3146 3145 3146 3145 3145 3146 3147 3148 3149 3151 3151 3152 3153 3154 3155 3156 3157 3158 3159 3160 3161 3162 3163 3163 3164 3165 3166 3168 3168 3169 3169 3170 3171 3172 3173 3173 3174 3175 3175 3176 3176 3175 3175 3175 3174 3173 3173 3172 3172 3173 3173 3173 3172 3173 3172 3172 3172 3172 3170 3169 3168 3167 3165 3165 3166 3167 3166 3164 3163 3163 3163 3161 3161 3160 3159 3158 3157 3156 3154 3153 3151
3144 3144 3144 3144 3144 3145 3146 3145 3145 3145 3145 3144 3145 3145 3146 3148 3150 3151 3152 3152 3154 3155 3156 3157 3158 3159 3160 3161 3161 3162 3163 3164 3165 3166 3167 3168 3168 3169 3170 3171 3171 3172 3172 3173 3173 3174 3175 3175 3173 3173 3173 3173 3172 3171 3171 3171 3171 3171 3171 3171 3171 3170 3170 3170 3169 3169 3168 3168 3166 3164 3164 3165 3166 3166 3163 3161 3161 3161 3159 3158 3157 3156 3155 3154 3152 3151 3149 3147
3142 3142 3143 3143 3143 3144 3144 3144 3144 3144 3144 3143 3144 3144 3145 3147 3148 3149 3150 3151 3153 3154 3155 3156 3157 3158 3159 3160 3161 3161 3162 3163 3164 3165 3166 3167 3168 3169 3170 3171 3170 3171 3172 3172 3172 3172 3173 3173 3172 3172 3172 3171 3170 3170 3169 3169 3170 3169 3169 3169 3168 3168 3168 3168 3167 3167 3167 3166 3165 3164 3163 3163 3164 3163 3161 3160 3159 3158 3157 3155 3154 3153 3152 3150 3149 3147 3146 3144
3140 3141 3141 3142 3142 3142 3143 3143 3143 3143 3143 3143 3143 3143 3144 3145 3146 3147 3148 3150 3152 3153 3154 3155 3157 3157 3158 3158 3160 3161 3161 3162 3164 3164 3165 3166 3167 3169 3170 3170 3170 3170 3170 3171 3170 3170 3171 3171 3170 3170 3171 3169 3168 3168 3168 3168 3168 3167 3167 3167 3166 3166 3166 3166 3165 3165 3165 3164 3164 3163 3163 3162 3160 3159 3159 3158 3157 3155 3154 3153 3151 3150 3149 3147 3146 3145 3143 3141
3138 3139 3140 3140 3141 3141 3142 3142 3143 3143 3143 3143 3142 3142 3143 3144 3145 3146 3147 3149 3150 3152 3153 3155 3156 3156 3156 3158 3159 3160 3160 3161 3162 3163 3164 3165 3166 3167 3168 3168 3168 3169 3169 3169 3169 3169 3170 3170 3169 3169 3169 3167 3166 3167 3167 3166 3166 3165 3164 3164 3164 3164 3164 3164 3164 3163 3163 3163 3162 3162 3161 3160 3158 3156 3156 3156 3154 3153 3151 3150 3149 3148 3146 3145 3144 3142 3141 3138
3137 3137 3138 3139 3140 3140 3141 3141 3142 3143 3142 3142 3141 3141 3142 3142 3143 3145 3147 3148 3149 3150 3152 3154 3155 3155 3156 3157 3158 3159 3159 3159 3161 3162 3163 3164 3164 3165 3165 3165 3166 3167 3168 3168 3168 3167 3168 3168 3168 3168 3167 3165 3165 3165 3165 3166 3164 3162 3161 3161 3162 3162 3163 3162 3162 3161 3161 3161 3161 3161 3159 3157 3156 3155 3155 3154 3153 3151 3150 3148 3147 3145 3144 3143 3141 3140 3138 3136